Regional Weather Roundup
Issued by NWS

Home | Current Version | Previous Version | Text Only | Print | Product List | Glossary On
Versions: 1 2 3 4 5 6 7 8 9 10 11 12 13 14 15 16 17 18 19 20 21 22 23 24 25 26 27 28 29 30 31 32 33 34 35 36 37 38 39 40 41 42 43 44 45 46 47 48 49 50
029
ASUS45 KSLC 292110
RWRUT

UTAH REGIONAL WEATHER ROUNDUP
NATIONAL WEATHER SERVICE SALT LAKE CITY UT
300 PM MDT WED MAR 29 2017

UTZ001>011-023>025-292200-

NORTHERN UTAH

CITY           SKY/WX    TMP DP  RH WIND       PRES   REMARKS
BRIGHAM CITY   SUNNY     53  29  41 S8        30.19F
DUGWAY         MOSUNNY   55  32  41 VRB2      30.18F
HILL AFB       SUNNY     51  29  42 VRB5      30.18F
LOGAN          MOSUNNY   56  32  40 N7        30.16F
OGDEN          SUNNY     51  30  44 CALM      30.18F
SALT LAKE CITY MOSUNNY   56  32  40 VRB7      30.18F
TOOELE VALLEY  SUNNY     54  34  47 N6        30.19F
WENDOVER       SUNNY     55  31  39 E9        30.18F
HEBER CITY     SUNNY     54  25  32 CALM      30.14F
WEST JORDAN    SUNNY     57  39  50 N5        30.18F

$$

UTZ011>015-024>027-292200-

CENTRAL/NORTHEAST UTAH

CITY           SKY/WX    TMP DP  RH WIND       PRES   REMARKS
PROVO AIRPORT  SUNNY     52  27  38 SW5       30.19F
MOAB/CANYONLAN SUNNY     61  24  24 NE5       30.06F
DELTA          SUNNY     52  30  43 NW5       30.19F
PRICE          SUNNY     57  24  28 S9        30.10F
RICHFIELD      SUNNY     54  32  43 NE7       30.18F
ROOSEVELT      SUNNY     54  28  37 CALM      30.13F
VERNAL         SUNNY     53  27  36 VRB5      30.11F

$$

UTZ013>016-019>022-027-292200-

SOUTHERN UTAH

CITY           SKY/WX    TMP DP  RH WIND       PRES   REMARKS
BRYCE CANYON   SUNNY     56  23  27 N12       30.17F
CEDAR CITY     SUNNY     55  30  38 NW7       30.17F
MILFORD        SUNNY     56  31  38 NE10G18   30.18F
ST GEORGE      CLEAR     69  25  19 S7        30.09F
HANKSVILLE     SUNNY     63  19  19 SW8       30.09F
KANAB          SUNNY     64  19  17 S5        30.13F
BLANDING       SUNNY     61  21  20 NW13      30.12F

$$

REGIONAL REPORTS     COLORADO/ARIZONA

CITY           SKY/WX    TMP DP  RH WIND       PRES   REMARKS
CRAIG, CO      MOSUNNY   51  28  41 SW9       30.11F
GRAND JUNCTION SUNNY     61  26  26 CALM      30.06F
RIFLE, CO      SUNNY     57  25  29 NW10G23   30.07F
MONTROSE, CO   MOSUNNY   54  27  35 NW6       30.09F
CORTEZ, CO     SUNNY     62  25  24 N16G24    30.01F
COLORADO CITY    N/A     66  23  19 W9G18     30.15F
PAGE, AZ       SUNNY     66  19  16 VRB6      30.08F
GRAND CANYON   SUNNY     59  15  18 N9        30.17F
KINGMAN, AZ    SUNNY     70 -10   4 NW8       30.10F
FLAGSTAFF, AZ  SUNNY     59   1   9 VRB7      30.15S

$$

REGIONAL REPORTS    NEVADA/IDAHO/WYOMING

CITY           SKY/WX    TMP DP  RH WIND       PRES   REMARKS
LAS VEGAS, NV  MOSUNNY   72  20  14 NE8       30.08F
ELY, NY        SUNNY     58  27  30 VRB5      30.19F
ELKO, NV       PTSUNNY   59  32  36 SW9       30.16F
POCATELLO, ID  CLOUDY    56  34  43 SW14G23   30.13F
BURLEY, ID     PTSUNNY   58  32  37 S10       30.10F
FORT BRIDGER,    N/A     53  26  36 W14G23    30.17F
EVANSTON, WY   SUNNY     49  26  41 W13       30.16F
ROCK SPRINGS,  SUNNY     48  28  46 W15       30.11F
KEMMERER, WY     N/A     43  28  56 NW12G17   30.16F

$$




USA.gov is the U.S. government's official web portal to all federal, state and local government web resources and services.